Tracking 18032 objects as of 27-March-2017
HD Live streaming from Space Station
objects crossing your sky now

DEMETER

Track DEMETER now!
10-day predictions
DEMETER is classified as:


NORAD ID: 28368
Int'l Code: 2004-025C
Perigee: 653.4 km
Apogee: 656.3 km
Inclination: 97.7 °
Period: 97.7 minutes
Semi major axis: 7025 km
RCS: 0.9257 m2 (medium)
Launch date: June 29, 2004
Source: France (FR)
Launch site: TYURATAM MISSILE AND SPACE COMPLEX (TTMTR)

Study of ionosperic perturbations in relation with seismic activity; global study of the Earth electromagnetic environment.
Your satellite tracking list
Your tracking list is empty





NASA's NSSDC Master Catalog

Two Line Element Set (TLE):
1 28368U 04025C   17085.93665516 +.00000178 +00000-0 +34135-4 0  9996
2 28368 097.7160 088.9305 0002031 111.9019 248.2408 14.74190694683505
Source of the keplerian elements: AFSPC